(150351) = 2000 AK11

Discovered at Socorro on 2000-01-03 by LINEAR.

Orbit

Orbit type: Main Belt

Note: WebGL enabled browser required.

epoch2024-03-31.0
epoch JD2460400.5
perihelion date2023-06-26.72157
perihelion JD2460122.22157
argument of perihelion (°)37.19655
ascending node (°)77.08907
inclination (°)6.50026
eccentricity0.1054132
perihelion distance (AU)1.9920262
Tisserand w.r.t. Jupiter3.6
ΔV w.r.t. Earth (km/sec)8.9
semimajor axis (AU)2.2267558
mean anomaly (°)82.54191
mean daily motion (°/day)0.29661630
aphelion distance (AU)2.461
period (years)3.32
P-vector [x]-0.40749735
P-vector [y]0.80827038
P-vector [z]0.42502341
Q-vector [x]-0.90651516
Q-vector [y]-0.41426742
Q-vector [z]-0.08131891
absolute magnitude16.87
phase slope0.15
uncertainty0
referenceMPEC 2024-F07
observations used591
oppositions15
arc length (days)8866
first opposition used1999
last opposition used2024
residual rms (arc-secs)0.65
perturbers coarse indicatorM-v
perturbers precise indicator003Ek
first observation date used1999-12-07.0
last observation date used2024-03-16.0
computer nameMPCLINUX
JD of orbit computation2456937.420391
perihelion JD uncertainty (days)1.0445E-04
argument of perihelion uncertainty (°)5.2734E-05
ascending node uncertainty (°)4.1878E-05
inclination uncertainty (°)4.8083E-06
eccentricity uncertainty 2.9395E-08
perihelion distance uncertainty (AU)6.4952E-08
Minimum Orbit Intersection Distances (in AU)
for orbit epoch: 2460400.5, reference: E2024-G95
Mercury1.66674
Venus1.27392
Earth1.01335
Mars0.36619
Jupiter2.62397
Saturn7.01807
Uranus16.3595
Neptune27.5872

Observations

601 total observations over interval: 1999 12 07.29143 – 2024 03 16.575025
These data are available for download (format description).

Date (UT) J2000 RA J2000 Dec Magn Location Ref
1999 12 07.29143 04 58 42.00 +22 14 56.9 18.8   704 – Lincoln Laboratory ETS, New Mexico MPS 20889
1999 12 07.30605 04 58 40.87 +22 14 59.4 19.0   704 – Lincoln Laboratory ETS, New Mexico MPS 20889
1999 12 07.32060 04 58 39.78 +22 15 02.1 18.8   704 – Lincoln Laboratory ETS, New Mexico MPS 20889
1999 12 07.33521 04 58 38.69 +22 15 04.9 18.8   704 – Lincoln Laboratory ETS, New Mexico MPS 20889
1999 12 07.34987 04 58 37.56 +22 15 06.5 19.2   704 – Lincoln Laboratory ETS, New Mexico MPS 20889
2000 01 03.22237 04 31 00.24 +23 26 06.9 18.8   704 – Lincoln Laboratory ETS, New Mexico MPS 9221
2000 01 03.23715 04 30 59.64 +23 26 08.9 18.9   704 – Lincoln Laboratory ETS, New Mexico MPS 9222
2000 01 03.25193 04 30 58.86 +23 26 11.7 19.2   704 – Lincoln Laboratory ETS, New Mexico MPS 9222
2000 01 03.26673 04 30 58.31 +23 26 15.0 19.2   704 – Lincoln Laboratory ETS, New Mexico MPS 9222
2000 01 03.28156 04 30 57.71 +23 26 15.8 19.2   704 – Lincoln Laboratory ETS, New Mexico MPS 9222
2000 01 04.15896 04 30 24.48 +23 28 31.5 19.7   704 – Lincoln Laboratory ETS, New Mexico MPS 9222
2000 01 04.17354 04 30 23.93 +23 28 34.2 19.4   704 – Lincoln Laboratory ETS, New Mexico MPS 9222
2000 01 04.18810 04 30 23.34 +23 28 35.9 19.7   704 – Lincoln Laboratory ETS, New Mexico MPS 9222
2000 01 04.20275 04 30 22.81 +23 28 38.7 19.6   704 – Lincoln Laboratory ETS, New Mexico MPS 9222
2000 01 08.07217 04 28 17.21 +23 38 43.2 18.9   704 – Lincoln Laboratory ETS, New Mexico MPS 9222
2000 01 08.10248 04 28 16.32 +23 38 48.7 19.1   704 – Lincoln Laboratory ETS, New Mexico MPS 9222
2000 01 08.11752 04 28 15.90 +23 38 51.2 19.4   704 – Lincoln Laboratory ETS, New Mexico MPS 9222
2000 01 08.13261 04 28 15.33 +23 38 52.5 18.8   704 – Lincoln Laboratory ETS, New Mexico MPS 9222
2002 09 16.47077 01 46 46.06 +00 18 12.3 20.5   608 – Haleakala-AMOS MPS 62789
2002 09 16.48155 01 46 45.70 +00 18 09.2 20.4   608 – Haleakala-AMOS MPS 62789
2002 09 16.49227 01 46 45.35 +00 18 06.0 20.8   608 – Haleakala-AMOS MPS 62789
2002 09 29.38835 01 37 47.83 -00 46 43.9 20.2   608 – Haleakala-AMOS MPS 62789
2002 09 29.39923 01 37 47.27 -00 46 47.6 20.3   608 – Haleakala-AMOS MPS 62789
2002 09 29.41013 01 37 46.69 -00 46 52.2 20.5   608 – Haleakala-AMOS MPS 62789
2002 10 04.349660 01 33 17.564 -01 12 26.09 19.92 V 645 – Apache Point-Sloan Digital Sky Survey MPS 79634
2002 10 04.353132 01 33 17.359 -01 12 27.28 20.68   645 – Apache Point-Sloan Digital Sky Survey MPS 79634
2002 10 08.24043 01 29 28.83 -01 31 48.0 19.0 R 699 – Lowell Observatory-LONEOS MPS 62789
2002 10 08.25801 01 29 27.80 -01 31 52.8   699 – Lowell Observatory-LONEOS MPS 62789
2002 10 08.27560 01 29 26.62 -01 31 57.2   699 – Lowell Observatory-LONEOS MPS 62789
2002 10 08.29315 01 29 25.50 -01 32 03.0   699 – Lowell Observatory-LONEOS MPS 62789
2004 03 20.39007 14 17 30.45 -03 45 10.1 20.9 C 704 – Lincoln Laboratory ETS, New Mexico MPS 294254
2004 03 20.40079 14 17 30.06 -03 45 07.3 19.7 C 704 – Lincoln Laboratory ETS, New Mexico MPS 294254
2004 03 20.41149 14 17 29.76 -03 45 05.6 19.7 C 704 – Lincoln Laboratory ETS, New Mexico MPS 294254
2004 03 20.42209 14 17 29.38 -03 45 01.1 19.6 C 704 – Lincoln Laboratory ETS, New Mexico MPS 294254
2004 03 31.41892 14 09 49.40 -03 00 07.8 19.4 V 691 – Steward Observatory, Kitt Peak-Spacewatch MPS 102901
2004 03 31.44593 14 09 47.98 -03 00 00.8 19.4 V 691 – Steward Observatory, Kitt Peak-Spacewatch MPS 102901
2004 03 31.47245 14 09 46.57 -02 59 54.1 19.4 V 691 – Steward Observatory, Kitt Peak-Spacewatch MPS 102901
2004 04 14.36084 13 56 23.22 -02 04 03.0 19.2 V 691 – Steward Observatory, Kitt Peak-Spacewatch MPS 104155
2004 04 14.38735 13 56 21.49 -02 03 57.4 19.2 V 691 – Steward Observatory, Kitt Peak-Spacewatch MPS 104155
2004 04 14.41473 13 56 19.72 -02 03 51.5 19.2 V 691 – Steward Observatory, Kitt Peak-Spacewatch MPS 104155
2004 04 15.29211 13 55 24.92 -02 00 46.2 18.7 C 704 – Lincoln Laboratory ETS, New Mexico MPS 291314
2004 04 15.29231 13 55 24.91 -02 00 44.8 19.0   704 – Lincoln Laboratory ETS, New Mexico MPS 104156
2004 04 15.30287 13 55 24.20 -02 00 42.4 20.2   704 – Lincoln Laboratory ETS, New Mexico MPS 104156
2004 04 15.30292 13 55 24.17 -02 00 42.6 19.9   704 – Lincoln Laboratory ETS, New Mexico MPS 104156
2004 04 15.31348 13 55 23.54 -02 00 40.4 19.8   704 – Lincoln Laboratory ETS, New Mexico MPS 104156
2004 04 15.31373 13 55 23.52 -02 00 42.0 19.5   704 – Lincoln Laboratory ETS, New Mexico MPS 104156
2004 04 15.32418 13 55 22.79 -02 00 38.6 20.1   704 – Lincoln Laboratory ETS, New Mexico MPS 104156
2004 04 15.32453 13 55 22.79 -02 00 38.5 19.6   704 – Lincoln Laboratory ETS, New Mexico MPS 104156
2004 04 15.33484 13 55 22.14 -02 00 36.6 19.5   704 – Lincoln Laboratory ETS, New Mexico MPS 104156
2004 04 15.33533 13 55 22.06 -02 00 35.7 19.5   704 – Lincoln Laboratory ETS, New Mexico MPS 104156
2004 04 16.29250 13 54 21.78 -01 57 18.8 19.5   704 – Lincoln Laboratory ETS, New Mexico MPS 104878
2004 04 16.29946 13 54 21.39 -01 57 17.4 19.5   704 – Lincoln Laboratory ETS, New Mexico MPS 104878
2004 04 16.30330 13 54 20.98 -01 57 16.4 19.7   704 – Lincoln Laboratory ETS, New Mexico MPS 104878
2004 04 16.31007 13 54 20.68 -01 57 15.1 19.9   704 – Lincoln Laboratory ETS, New Mexico MPS 104878
2004 04 16.31413 13 54 20.38 -01 57 14.6 20.1   704 – Lincoln Laboratory ETS, New Mexico MPS 104878
2004 04 16.32150 13 54 19.88 -01 57 12.4 19.6   704 – Lincoln Laboratory ETS, New Mexico MPS 104878
2004 04 16.32495 13 54 19.69 -01 57 12.4 20.1   704 – Lincoln Laboratory ETS, New Mexico MPS 104878
2004 04 16.33230 13 54 19.14 -01 57 11.1 19.7   704 – Lincoln Laboratory ETS, New Mexico MPS 104878
2004 04 16.33594 13 54 19.02 -01 57 09.9 19.9   704 – Lincoln Laboratory ETS, New Mexico MPS 104878
2004 04 16.34363 13 54 18.49 -01 57 08.0 19.9   704 – Lincoln Laboratory ETS, New Mexico MPS 104878
2004 04 20.30860 13 50 08.25 -01 44 39.5 18.6   704 – Lincoln Laboratory ETS, New Mexico MPS 104878
2004 04 20.33083 13 50 06.81 -01 44 35.3 19.2   704 – Lincoln Laboratory ETS, New Mexico MPS 104878
2004 04 20.35296 13 50 05.33 -01 44 31.1 19.5   704 – Lincoln Laboratory ETS, New Mexico MPS 104878
2004 04 22.31178 13 48 02.77 -01 39 06.5 19.0   704 – Lincoln Laboratory ETS, New Mexico MPS 104878
2004 04 22.32209 13 48 02.09 -01 39 07.6 19.4   704 – Lincoln Laboratory ETS, New Mexico MPS 104878
2004 04 22.33261 13 48 01.51 -01 39 06.2 19.3   704 – Lincoln Laboratory ETS, New Mexico MPS 104878
2004 04 22.34306 13 48 00.76 -01 39 04.0 19.3   704 – Lincoln Laboratory ETS, New Mexico MPS 104878
2004 04 22.35366 13 48 00.08 -01 39 02.5 18.9   704 – Lincoln Laboratory ETS, New Mexico MPS 104878
2004 04 23.24929 13 47 04.77 -01 36 45.7 19.4 V 691 – Steward Observatory, Kitt Peak-Spacewatch MPS 106071
2004 04 23.28482 13 47 02.51 -01 36 40.5 19.3 V 691 – Steward Observatory, Kitt Peak-Spacewatch MPS 106071
2004 04 23.31426 13 47 00.61 -01 36 36.1 19.4 V 691 – Steward Observatory, Kitt Peak-Spacewatch MPS 106071
2004 04 25.24382 13 45 02.51 -01 32 10.5 19.6   704 – Lincoln Laboratory ETS, New Mexico MPS 106071
2004 04 25.25436 13 45 01.85 -01 32 06.6 19.7   704 – Lincoln Laboratory ETS, New Mexico MPS 106071
2004 04 25.26532 13 45 01.20 -01 32 06.3 20.0   704 – Lincoln Laboratory ETS, New Mexico MPS 106071
2004 04 25.27608 13 45 00.49 -01 32 05.2 19.4   704 – Lincoln Laboratory ETS, New Mexico MPS 106071
2007 01 16.36884 10 44 18.96 +18 35 52.3 19.4 V 703 – Catalina Sky Survey MPS 196277
2007 01 16.37712 10 44 18.85 +18 35 53.3 19.8 V 703 – Catalina Sky Survey MPS 196277
2007 01 16.38547 10 44 18.67 +18 35 57.3 19.8 V 703 – Catalina Sky Survey MPS 196277
2007 01 16.39385 10 44 18.60 +18 36 01.4 19.9 V 703 – Catalina Sky Survey MPS 196277
2007 01 27.25077 10 40 38.67 +20 00 36.0 20.7 V 703 – Catalina Sky Survey MPS 197967
2007 01 27.25913 10 40 38.35 +20 00 39.4 19.0 V 703 – Catalina Sky Survey MPS 197967
2007 01 27.26753 10 40 38.06 +20 00 44.6 19.8 V 703 – Catalina Sky Survey MPS 197967
2007 01 27.27593 10 40 37.74 +20 00 51.6 20.8 V 703 – Catalina Sky Survey MPS 197967
2007 01 27.34245 10 40 35.56 +20 01 23.5 19.2 R 699 – Lowell Observatory-LONEOS MPS 197967
